owner,sensor,date,latitude,longitude,relative_humidity,qcFlag 
DISL,ioos:station:DISL:MBLA:1,2016-03-01T00:00:00Z,30.4367,-88.0117,100.0,1111122 
DISL,ioos:station:DISL:MBLA:1,2016-03-01T00:30:00Z,30.4367,-88.0117,100.0,1111122 
DISL,ioos:station:DISL:MBLA:1,2016-03-01T01:00:00Z,30.4367,-88.0117,100.0,1111122 
DISL,ioos:station:DISL:MBLA:1,2016-03-01T01:30:00Z,30.4367,-88.0117,100.0,1111122 
DISL,ioos:station:DISL:MBLA:1,2016-03-01T07:30:00Z,30.4367,-88.0117,100.0,1111122 
DISL,ioos:station:DISL:MBLA:1,2016-03-01T09:00:00Z,30.4367,-88.0117,100.0,1111122 
DISL,ioos:station:DISL:MBLA:1,2016-03-01T09:30:00Z,30.4367,-88.0117,100.0,1111122 
DISL,ioos:station:DISL:MBLA:1,2016-03-01T10:00:00Z,30.4367,-88.0117,100.0,1111122 
DISL,ioos:station:DISL:MBLA:1,2016-03-01T22:00:00Z,30.4367,-88.0117,100.0,1111122 
DISL,ioos:station:DISL:MBLA:1,2016-03-01T22:30:00Z,30.4367,-88.0117,100.0,1111122 
DISL,ioos:station:DISL:MBLA:1,2016-03-02T07:00:00Z,30.4367,-88.0117,95.7,1111122 
DISL,ioos:station:DISL:MBLA:1,2016-03-02T07:30:00Z,30.4367,-88.0117,90.3,1111122 
DISL,ioos:station:DISL:MBLA:1,2016-03-02T08:00:00Z,30.4367,-88.0117,83.2,1111122 
DISL,ioos:station:DISL:MBLA:1,2016-03-02T08:30:00Z,30.4367,-88.0117,80.9,1111122 
DISL,ioos:station:DISL:MBLA:1,2016-03-02T09:00:00Z,30.4367,-88.0117,68.72,1111122 
DISL,ioos:station:DISL:MBLA:1,2016-03-02T09:30:00Z,30.4367,-88.0117,67.85,1111122 
DISL,ioos:station:DISL:MBLA:1,2016-03-02T10:00:00Z,30.4367,-88.0117,72.74,1111122 
DISL,ioos:station:DISL:MBLA:1,2016-03-02T10:30:00Z,30.4367,-88.0117,76.98,1111122 
DISL,ioos:station:DISL:MBLA:1,2016-03-02T11:00:00Z,30.4367,-88.0117,79.23,1111122 
DISL,ioos:station:DISL:MBLA:1,2016-03-02T11:30:00Z,30.4367,-88.0117,77.9,1111122 
DISL,ioos:station:DISL:MBLA:1,2016-03-02T12:00:00Z,30.4367,-88.0117,71.9,1111122 
DISL,ioos:station:DISL:MBLA:1,2016-03-02T12:30:00Z,30.4367,-88.0117,69.43,1111122 
DISL,ioos:station:DISL:MBLA:1,2016-03-02T13:00:00Z,30.4367,-88.0117,63.12,1111122 
DISL,ioos:station:DISL:MBLA:1,2016-03-02T13:30:00Z,30.4367,-88.0117,60.09,1111122 
DISL,ioos:station:DISL:MBLA:1,2016-03-02T14:00:00Z,30.4367,-88.0117,59.65,1111122 
DISL,ioos:station:DISL:MBLA:1,2016-03-02T14:30:00Z,30.4367,-88.0117,56.19,1111122 
DISL,ioos:station:DISL:MBLA:1,2016-03-02T15:00:00Z,30.4367,-88.0117,59.07,1111122 
DISL,ioos:station:DISL:MBLA:1,2016-03-02T15:30:00Z,30.4367,-88.0117,60.29,1111122 
DISL,ioos:station:DISL:MBLA:1,2016-03-02T16:00:00Z,30.4367,-88.0117,56.79,1111122 
DISL,ioos:station:DISL:MBLA:1,2016-03-02T16:30:00Z,30.4367,-88.0117,57.1,1111122 
DISL,ioos:station:DISL:MBLA:1,2016-03-02T17:00:00Z,30.4367,-88.0117,57.26,1111122 
DISL,ioos:station:DISL:MBLA:1,2016-03-02T17:30:00Z,30.4367,-88.0117,56.47,1111122 
DISL,ioos:station:DISL:MBLA:1,2016-03-02T18:00:00Z,30.4367,-88.0117,52.6,1111122 
DISL,ioos:station:DISL:MBLA:1,2016-03-02T18:30:00Z,30.4367,-88.0117,47.38,1111122 
DISL,ioos:station:DISL:MBLA:1,2016-03-02T19:00:00Z,30.4367,-88.0117,45.28,1111122 
DISL,ioos:station:DISL:MBLA:1,2016-03-02T19:30:00Z,30.4367,-88.0117,47.85,1111122 
DISL,ioos:station:DISL:MBLA:1,2016-03-02T20:00:00Z,30.4367,-88.0117,40.05,1111122 
DISL,ioos:station:DISL:MBLA:1,2016-03-02T20:30:00Z,30.4367,-88.0117,37.57,1111122 
DISL,ioos:station:DISL:MBLA:1,2016-03-02T21:00:00Z,30.4367,-88.0117,41.2,1111122 
DISL,ioos:station:DISL:MBLA:1,2016-03-02T21:30:00Z,30.4367,-88.0117,46.69,1111122 
DISL,ioos:station:DISL:MBLA:1,2016-03-02T22:00:00Z,30.4367,-88.0117,38.38,1111122 
DISL,ioos:station:DISL:MBLA:1,2016-03-02T22:30:00Z,30.4367,-88.0117,42.28,1111122 
DISL,ioos:station:DISL:MBLA:1,2016-03-02T23:00:00Z,30.4367,-88.0117,46.96,1111122 
DISL,ioos:station:DISL:MBLA:1,2016-03-02T23:30:00Z,30.4367,-88.0117,47.03,1111122 
DISL,ioos:station:DISL:MBLA:1,2016-03-03T00:00:00Z,30.4367,-88.0117,57.59,1111122 
DISL,ioos:station:DISL:MBLA:1,2016-03-03T00:30:00Z,30.4367,-88.0117,56.44,1111122 
DISL,ioos:station:DISL:MBLA:1,2016-03-03T01:00:00Z,30.4367,-88.0117,60.14,1111122 
DISL,ioos:station:DISL:MBLA:1,2016-03-03T01:30:00Z,30.4367,-88.0117,60.18,1111122 
DISL,ioos:station:DISL:MBLA:1,2016-03-03T02:00:00Z,30.4367,-88.0117,63.71,1111122 
DISL,ioos:station:DISL:MBLA:1,2016-03-03T02:30:00Z,30.4367,-88.0117,69.01,1111122 
DISL,ioos:station:DISL:MBLA:1,2016-03-03T03:00:00Z,30.4367,-88.0117,60.39,1111122 
DISL,ioos:station:DISL:MBLA:1,2016-03-03T03:30:00Z,30.4367,-88.0117,62.8,1111122 
DISL,ioos:station:DISL:MBLA:1,2016-03-03T04:00:00Z,30.4367,-88.0117,54.56,1111122 
DISL,ioos:station:DISL:MBLA:1,2016-03-03T04:30:00Z,30.4367,-88.0117,52.22,1111122 
DISL,ioos:station:DISL:MBLA:1,2016-03-03T05:00:00Z,30.4367,-88.0117,56.25,1111122 
DISL,ioos:station:DISL:MBLA:1,2016-03-03T05:30:00Z,30.4367,-88.0117,46.21,1111122 
DISL,ioos:station:DISL:MBLA:1,2016-03-03T06:00:00Z,30.4367,-88.0117,54.62,1111122 
DISL,ioos:station:DISL:MBLA:1,2016-03-03T06:30:00Z,30.4367,-88.0117,52.35,1111122 
DISL,ioos:station:DISL:MBLA:1,2016-03-03T07:00:00Z,30.4367,-88.0117,52.93,1111122 
DISL,ioos:station:DISL:MBLA:1,2016-03-03T07:30:00Z,30.4367,-88.0117,60.26,1111122 
DISL,ioos:station:DISL:MBLA:1,2016-03-03T08:00:00Z,30.4367,-88.0117,57.85,1111122 
DISL,ioos:station:DISL:MBLA:1,2016-03-03T08:30:00Z,30.4367,-88.0117,64.57,1111122 
DISL,ioos:station:DISL:MBLA:1,2016-03-03T09:00:00Z,30.4367,-88.0117,68.37,1111122 
DISL,ioos:station:DISL:MBLA:1,2016-03-03T09:30:00Z,30.4367,-88.0117,72.21,1111122 
DISL,ioos:station:DISL:MBLA:1,2016-03-03T10:00:00Z,30.4367,-88.0117,72.28,1111122 
DISL,ioos:station:DISL:MBLA:1,2016-03-03T10:30:00Z,30.4367,-88.0117,72.07,1111122 
DISL,ioos:station:DISL:MBLA:1,2016-03-03T11:00:00Z,30.4367,-88.0117,77.21,1111122 
DISL,ioos:station:DISL:MBLA:1,2016-03-03T11:30:00Z,30.4367,-88.0117,79.92,1111122 
DISL,ioos:station:DISL:MBLA:1,2016-03-03T12:00:00Z,30.4367,-88.0117,80.2,1111122 
DISL,ioos:station:DISL:MBLA:1,2016-03-03T12:30:00Z,30.4367,-88.0117,79.76,1111122 
DISL,ioos:station:DISL:MBLA:1,2016-03-03T13:00:00Z,30.4367,-88.0117,84.8,1111122 
DISL,ioos:station:DISL:MBLA:1,2016-03-03T13:30:00Z,30.4367,-88.0117,87.4,1111122 
DISL,ioos:station:DISL:MBLA:1,2016-03-03T14:00:00Z,30.4367,-88.0117,89.3,1111122 
DISL,ioos:station:DISL:MBLA:1,2016-03-03T14:30:00Z,30.4367,-88.0117,82.0,1111122 
DISL,ioos:station:DISL:MBLA:1,2016-03-03T15:00:00Z,30.4367,-88.0117,84.0,1111122 
DISL,ioos:station:DISL:MBLA:1,2016-03-03T15:30:00Z,30.4367,-88.0117,88.1,1111122 
DISL,ioos:station:DISL:MBLA:1,2016-03-03T16:00:00Z,30.4367,-88.0117,87.5,1111122 
DISL,ioos:station:DISL:MBLA:1,2016-03-03T16:30:00Z,30.4367,-88.0117,89.0,1111122 
DISL,ioos:station:DISL:MBLA:1,2016-03-03T17:00:00Z,30.4367,-88.0117,89.7,1111122 
DISL,ioos:station:DISL:MBLA:1,2016-03-03T17:30:00Z,30.4367,-88.0117,90.2,1111122 
DISL,ioos:station:DISL:MBLA:1,2016-03-03T18:00:00Z,30.4367,-88.0117,92.4,1111122 
DISL,ioos:station:DISL:MBLA:1,2016-03-03T18:30:00Z,30.4367,-88.0117,93.6,1111122 
DISL,ioos:station:DISL:MBLA:1,2016-03-03T19:00:00Z,30.4367,-88.0117,97.8,1111122 
DISL,ioos:station:DISL:MBLA:1,2016-03-03T19:30:00Z,30.4367,-88.0117,96.6,1111122 
DISL,ioos:station:DISL:MBLA:1,2016-03-03T20:00:00Z,30.4367,-88.0117,91.1,1111122 
DISL,ioos:station:DISL:MBLA:1,2016-03-03T20:30:00Z,30.4367,-88.0117,92.3,1111122 
DISL,ioos:station:DISL:MBLA:1,2016-03-03T21:00:00Z,30.4367,-88.0117,93.3,1111122 
DISL,ioos:station:DISL:MBLA:1,2016-03-03T21:30:00Z,30.4367,-88.0117,95.8,1111122 
DISL,ioos:station:DISL:MBLA:1,2016-03-03T22:00:00Z,30.4367,-88.0117,98.6,1111122 
DISL,ioos:station:DISL:MBLA:1,2016-03-03T22:30:00Z,30.4367,-88.0117,100.0,1111122 
DISL,ioos:station:DISL:MBLA:1,2016-03-04T03:00:00Z,30.4367,-88.0117,100.0,1111122 
DISL,ioos:station:DISL:MBLA:1,2016-03-04T03:30:00Z,30.4367,-88.0117,100.0,1111122 
DISL,ioos:station:DISL:MBLA:1,2016-03-04T04:00:00Z,30.4367,-88.0117,100.0,1111122 
DISL,ioos:station:DISL:MBLA:1,2016-03-04T04:30:00Z,30.4367,-88.0117,100.0,1111122 
DISL,ioos:station:DISL:MBLA:1,2016-03-04T05:00:00Z,30.4367,-88.0117,98.4,1111122 
DISL,ioos:station:DISL:MBLA:1,2016-03-04T05:30:00Z,30.4367,-88.0117,97.1,1111122 
DISL,ioos:station:DISL:MBLA:1,2016-03-04T06:00:00Z,30.4367,-88.0117,95.3,1111122 
DISL,ioos:station:DISL:MBLA:1,2016-03-04T06:30:00Z,30.4367,-88.0117,89.7,1111122 
DISL,ioos:station:DISL:MBLA:1,2016-03-04T07:00:00Z,30.4367,-88.0117,89.7,1111122 
DISL,ioos:station:DISL:MBLA:1,2016-03-04T07:30:00Z,30.4367,-88.0117,90.8,1111122 
DISL,ioos:station:DISL:MBLA:1,2016-03-04T08:00:00Z,30.4367,-88.0117,91.9,1111122 
DISL,ioos:station:DISL:MBLA:1,2016-03-04T08:30:00Z,30.4367,-88.0117,93.4,1111122 
DISL,ioos:station:DISL:MBLA:1,2016-03-04T09:00:00Z,30.4367,-88.0117,95.3,1111122 
DISL,ioos:station:DISL:MBLA:1,2016-03-04T09:30:00Z,30.4367,-88.0117,93.5,1111122 
DISL,ioos:station:DISL:MBLA:1,2016-03-04T10:00:00Z,30.4367,-88.0117,94.1,1111122 
DISL,ioos:station:DISL:MBLA:1,2016-03-04T10:30:00Z,30.4367,-88.0117,93.2,1111122 
DISL,ioos:station:DISL:MBLA:1,2016-03-04T11:00:00Z,30.4367,-88.0117,91.5,1111122 
DISL,ioos:station:DISL:MBLA:1,2016-03-04T11:30:00Z,30.4367,-88.0117,90.3,1111122 
DISL,ioos:station:DISL:MBLA:1,2016-03-04T12:00:00Z,30.4367,-88.0117,91.0,1111122 
DISL,ioos:station:DISL:MBLA:1,2016-03-04T12:30:00Z,30.4367,-88.0117,90.0,1111122 
DISL,ioos:station:DISL:MBLA:1,2016-03-04T13:00:00Z,30.4367,-88.0117,91.3,1111122 
DISL,ioos:station:DISL:MBLA:1,2016-03-04T13:30:00Z,30.4367,-88.0117,91.9,1111122 
DISL,ioos:station:DISL:MBLA:1,2016-03-04T14:00:00Z,30.4367,-88.0117,91.1,1111122 
DISL,ioos:station:DISL:MBLA:1,2016-03-04T14:30:00Z,30.4367,-88.0117,88.2,1111122 
DISL,ioos:station:DISL:MBLA:1,2016-03-04T15:00:00Z,30.4367,-88.0117,89.7,1111122 
DISL,ioos:station:DISL:MBLA:1,2016-03-04T15:30:00Z,30.4367,-88.0117,84.0,1111122 
DISL,ioos:station:DISL:MBLA:1,2016-03-04T16:00:00Z,30.4367,-88.0117,78.67,1111122 
DISL,ioos:station:DISL:MBLA:1,2016-03-04T16:30:00Z,30.4367,-88.0117,76.42,1111122 
DISL,ioos:station:DISL:MBLA:1,2016-03-04T17:00:00Z,30.4367,-88.0117,77.06,1111122 
DISL,ioos:station:DISL:MBLA:1,2016-03-04T17:30:00Z,30.4367,-88.0117,74.67,1111122 
DISL,ioos:station:DISL:MBLA:1,2016-03-04T18:00:00Z,30.4367,-88.0117,72.84,1111122 
DISL,ioos:station:DISL:MBLA:1,2016-03-04T18:30:00Z,30.4367,-88.0117,72.03,1111122 
DISL,ioos:station:DISL:MBLA:1,2016-03-04T19:00:00Z,30.4367,-88.0117,69.13,1111122 
DISL,ioos:station:DISL:MBLA:1,2016-03-04T19:30:00Z,30.4367,-88.0117,67.87,1111122 
DISL,ioos:station:DISL:MBLA:1,2016-03-04T20:00:00Z,30.4367,-88.0117,68.27,1111122 
DISL,ioos:station:DISL:MBLA:1,2016-03-04T20:30:00Z,30.4367,-88.0117,64.91,1111122 
DISL,ioos:station:DISL:MBLA:1,2016-03-04T21:00:00Z,30.4367,-88.0117,62.68,1111122 
DISL,ioos:station:DISL:MBLA:1,2016-03-04T21:30:00Z,30.4367,-88.0117,58.81,1111122 
DISL,ioos:station:DISL:MBLA:1,2016-03-04T22:00:00Z,30.4367,-88.0117,62.4,1111122 
DISL,ioos:station:DISL:MBLA:1,2016-03-04T22:30:00Z,30.4367,-88.0117,60.63,1111122 
DISL,ioos:station:DISL:MBLA:1,2016-03-04T23:00:00Z,30.4367,-88.0117,60.08,1111122 
DISL,ioos:station:DISL:MBLA:1,2016-03-04T23:30:00Z,30.4367,-88.0117,68.56,1111122 
DISL,ioos:station:DISL:MBLA:1,2016-03-05T00:00:00Z,30.4367,-88.0117,73.48,1111122 
DISL,ioos:station:DISL:MBLA:1,2016-03-05T00:30:00Z,30.4367,-88.0117,82.5,1111122 
DISL,ioos:station:DISL:MBLA:1,2016-03-05T01:00:00Z,30.4367,-88.0117,72.85,1111122 
DISL,ioos:station:DISL:MBLA:1,2016-03-05T01:30:00Z,30.4367,-88.0117,79.14,1111122 
DISL,ioos:station:DISL:MBLA:1,2016-03-05T02:00:00Z,30.4367,-88.0117,82.0,1111122 
DISL,ioos:station:DISL:MBLA:1,2016-03-05T02:30:00Z,30.4367,-88.0117,74.64,1111122 
DISL,ioos:station:DISL:MBLA:1,2016-03-05T03:00:00Z,30.4367,-88.0117,90.1,1111122 
DISL,ioos:station:DISL:MBLA:1,2016-03-05T03:30:00Z,30.4367,-88.0117,91.1,1111122 
DISL,ioos:station:DISL:MBLA:1,2016-03-05T04:00:00Z,30.4367,-88.0117,92.4,1111122 
DISL,ioos:station:DISL:MBLA:1,2016-03-05T04:30:00Z,30.4367,-88.0117,94.3,1111122 
DISL,ioos:station:DISL:MBLA:1,2016-03-05T05:00:00Z,30.4367,-88.0117,74.3,1111122 
DISL,ioos:station:DISL:MBLA:1,2016-03-05T05:30:00Z,30.4367,-88.0117,78.62,1111122 
DISL,ioos:station:DISL:MBLA:1,2016-03-05T06:00:00Z,30.4367,-88.0117,79.57,1111122 
DISL,ioos:station:DISL:MBLA:1,2016-03-05T06:30:00Z,30.4367,-88.0117,83.2,1111122 
DISL,ioos:station:DISL:MBLA:1,2016-03-05T07:00:00Z,30.4367,-88.0117,81.7,1111122 
DISL,ioos:station:DISL:MBLA:1,2016-03-05T07:30:00Z,30.4367,-88.0117,84.3,1111122 
DISL,ioos:station:DISL:MBLA:1,2016-03-05T08:00:00Z,30.4367,-88.0117,82.1,1111122 
DISL,ioos:station:DISL:MBLA:1,2016-03-05T08:30:00Z,30.4367,-88.0117,83.7,1111122 
DISL,ioos:station:DISL:MBLA:1,2016-03-05T09:00:00Z,30.4367,-88.0117,82.6,1111122 
DISL,ioos:station:DISL:MBLA:1,2016-03-05T09:30:00Z,30.4367,-88.0117,81.4,1111122 
DISL,ioos:station:DISL:MBLA:1,2016-03-05T10:00:00Z,30.4367,-88.0117,83.1,1111122 
DISL,ioos:station:DISL:MBLA:1,2016-03-05T10:30:00Z,30.4367,-88.0117,82.1,1111122 
DISL,ioos:station:DISL:MBLA:1,2016-03-05T11:00:00Z,30.4367,-88.0117,81.7,1111122 
DISL,ioos:station:DISL:MBLA:1,2016-03-05T11:30:00Z,30.4367,-88.0117,85.1,1111122 
DISL,ioos:station:DISL:MBLA:1,2016-03-05T12:00:00Z,30.4367,-88.0117,82.8,1111122 
DISL,ioos:station:DISL:MBLA:1,2016-03-05T12:30:00Z,30.4367,-88.0117,79.38,1111122 
DISL,ioos:station:DISL:MBLA:1,2016-03-05T13:00:00Z,30.4367,-88.0117,76.74,1111122 
DISL,ioos:station:DISL:MBLA:1,2016-03-05T13:30:00Z,30.4367,-88.0117,76.06,1111122 
DISL,ioos:station:DISL:MBLA:1,2016-03-05T14:00:00Z,30.4367,-88.0117,75.33,1111122 
DISL,ioos:station:DISL:MBLA:1,2016-03-05T14:30:00Z,30.4367,-88.0117,74.03,1111122 
DISL,ioos:station:DISL:MBLA:1,2016-03-05T15:00:00Z,30.4367,-88.0117,75.25,1111122 
DISL,ioos:station:DISL:MBLA:1,2016-03-05T15:30:00Z,30.4367,-88.0117,76.35,1111122 
DISL,ioos:station:DISL:MBLA:1,2016-03-05T16:00:00Z,30.4367,-88.0117,71.87,1111122 
DISL,ioos:station:DISL:MBLA:1,2016-03-05T16:30:00Z,30.4367,-88.0117,71.7,1111122 
DISL,ioos:station:DISL:MBLA:1,2016-03-05T17:00:00Z,30.4367,-88.0117,68.81,1111122 
DISL,ioos:station:DISL:MBLA:1,2016-03-05T17:30:00Z,30.4367,-88.0117,68.06,1111122 
DISL,ioos:station:DISL:MBLA:1,2016-03-05T18:00:00Z,30.4367,-88.0117,65.68,1111122 
DISL,ioos:station:DISL:MBLA:1,2016-03-05T18:30:00Z,30.4367,-88.0117,68.16,1111122 
DISL,ioos:station:DISL:MBLA:1,2016-03-05T19:00:00Z,30.4367,-88.0117,67.64,1111122 
DISL,ioos:station:DISL:MBLA:1,2016-03-05T19:30:00Z,30.4367,-88.0117,67.1,1111122 
DISL,ioos:station:DISL:MBLA:1,2016-03-05T20:00:00Z,30.4367,-88.0117,62.76,1111122 
DISL,ioos:station:DISL:MBLA:1,2016-03-05T20:30:00Z,30.4367,-88.0117,70.48,1111122 
DISL,ioos:station:DISL:MBLA:1,2016-03-05T21:00:00Z,30.4367,-88.0117,71.26,1111122 
DISL,ioos:station:DISL:MBLA:1,2016-03-05T21:30:00Z,30.4367,-88.0117,78.32,1111122 
DISL,ioos:station:DISL:MBLA:1,2016-03-05T22:00:00Z,30.4367,-88.0117,81.3,1111122 
DISL,ioos:station:DISL:MBLA:1,2016-03-05T22:30:00Z,30.4367,-88.0117,83.1,1111122 
DISL,ioos:station:DISL:MBLA:1,2016-03-05T23:00:00Z,30.4367,-88.0117,84.3,1111122 
DISL,ioos:station:DISL:MBLA:1,2016-03-05T23:30:00Z,30.4367,-88.0117,85.0,1111122 
DISL,ioos:station:DISL:MBLA:1,2016-03-06T00:00:00Z,30.4367,-88.0117,85.7,1111122 
DISL,ioos:station:DISL:MBLA:1,2016-03-06T00:30:00Z,30.4367,-88.0117,88.6,1111122 
DISL,ioos:station:DISL:MBLA:1,2016-03-06T01:00:00Z,30.4367,-88.0117,90.5,1111122 
DISL,ioos:station:DISL:MBLA:1,2016-03-06T01:30:00Z,30.4367,-88.0117,91.6,1111122 
DISL,ioos:station:DISL:MBLA:1,2016-03-06T02:00:00Z,30.4367,-88.0117,94.7,1111122 
DISL,ioos:station:DISL:MBLA:1,2016-03-06T02:30:00Z,30.4367,-88.0117,96.0,1111122 
DISL,ioos:station:DISL:MBLA:1,2016-03-06T03:00:00Z,30.4367,-88.0117,100.0,1111122 
DISL,ioos:station:DISL:MBLA:1,2016-03-06T03:30:00Z,30.4367,-88.0117,100.0,1111122 
DISL,ioos:station:DISL:MBLA:1,2016-03-06T04:00:00Z,30.4367,-88.0117,100.0,1111122 
DISL,ioos:station:DISL:MBLA:1,2016-03-06T11:30:00Z,30.4367,-88.0117,100.0,1111122 
DISL,ioos:station:DISL:MBLA:1,2016-03-06T12:00:00Z,30.4367,-88.0117,85.5,1111122 
DISL,ioos:station:DISL:MBLA:1,2016-03-06T12:30:00Z,30.4367,-88.0117,78.69,1111122 
DISL,ioos:station:DISL:MBLA:1,2016-03-06T13:00:00Z,30.4367,-88.0117,69.08,1111122 
DISL,ioos:station:DISL:MBLA:1,2016-03-06T13:30:00Z,30.4367,-88.0117,62.02,1111122 
DISL,ioos:station:DISL:MBLA:1,2016-03-06T14:00:00Z,30.4367,-88.0117,61.64,1111122 
DISL,ioos:station:DISL:MBLA:1,2016-03-06T14:30:00Z,30.4367,-88.0117,64.08,1111122 
DISL,ioos:station:DISL:MBLA:1,2016-03-06T15:00:00Z,30.4367,-88.0117,63.7,1111122 
DISL,ioos:station:DISL:MBLA:1,2016-03-06T15:30:00Z,30.4367,-88.0117,59.66,1111122 
DISL,ioos:station:DISL:MBLA:1,2016-03-06T16:00:00Z,30.4367,-88.0117,52.74,1111122 
DISL,ioos:station:DISL:MBLA:1,2016-03-06T16:30:00Z,30.4367,-88.0117,35.17,1111122 
DISL,ioos:station:DISL:MBLA:1,2016-03-06T17:00:00Z,30.4367,-88.0117,43.14,1111122 
DISL,ioos:station:DISL:MBLA:1,2016-03-06T17:30:00Z,30.4367,-88.0117,33.54,1111122 
DISL,ioos:station:DISL:MBLA:1,2016-03-06T18:00:00Z,30.4367,-88.0117,46.48,1111122 
DISL,ioos:station:DISL:MBLA:1,2016-03-06T18:30:00Z,30.4367,-88.0117,56.28,1111122 
DISL,ioos:station:DISL:MBLA:1,2016-03-06T19:00:00Z,30.4367,-88.0117,61.4,1111122 
DISL,ioos:station:DISL:MBLA:1,2016-03-06T19:30:00Z,30.4367,-88.0117,45.23,1111122 
DISL,ioos:station:DISL:MBLA:1,2016-03-06T20:00:00Z,30.4367,-88.0117,58.52,1111122 
DISL,ioos:station:DISL:MBLA:1,2016-03-06T20:30:00Z,30.4367,-88.0117,60.55,1111122 
DISL,ioos:station:DISL:MBLA:1,2016-03-06T21:00:00Z,30.4367,-88.0117,61.1,1111122 
DISL,ioos:station:DISL:MBLA:1,2016-03-06T21:30:00Z,30.4367,-88.0117,63.13,1111122 
DISL,ioos:station:DISL:MBLA:1,2016-03-06T22:00:00Z,30.4367,-88.0117,65.57,1111122 
DISL,ioos:station:DISL:MBLA:1,2016-03-06T22:30:00Z,30.4367,-88.0117,64.99,1111122 
DISL,ioos:station:DISL:MBLA:1,2016-03-06T23:00:00Z,30.4367,-88.0117,69.03,1111122 
DISL,ioos:station:DISL:MBLA:1,2016-03-06T23:30:00Z,30.4367,-88.0117,71.33,1111122 
DISL,ioos:station:DISL:MBLA:1,2016-03-07T00:00:00Z,30.4367,-88.0117,72.36,1111122 
DISL,ioos:station:DISL:MBLA:1,2016-03-07T00:30:00Z,30.4367,-88.0117,73.46,1111122 
DISL,ioos:station:DISL:MBLA:1,2016-03-07T01:00:00Z,30.4367,-88.0117,72.61,1111122 
DISL,ioos:station:DISL:MBLA:1,2016-03-07T01:30:00Z,30.4367,-88.0117,76.17,1111122 
DISL,ioos:station:DISL:MBLA:1,2016-03-07T02:00:00Z,30.4367,-88.0117,76.05,1111122 
DISL,ioos:station:DISL:MBLA:1,2016-03-07T02:30:00Z,30.4367,-88.0117,76.15,1111122 
DISL,ioos:station:DISL:MBLA:1,2016-03-07T03:00:00Z,30.4367,-88.0117,78.2,1111122 
DISL,ioos:station:DISL:MBLA:1,2016-03-07T03:30:00Z,30.4367,-88.0117,79.35,1111122 
DISL,ioos:station:DISL:MBLA:1,2016-03-07T04:00:00Z,30.4367,-88.0117,81.1,1111122 
DISL,ioos:station:DISL:MBLA:1,2016-03-07T04:30:00Z,30.4367,-88.0117,84.1,1111122 
DISL,ioos:station:DISL:MBLA:1,2016-03-07T05:00:00Z,30.4367,-88.0117,95.4,1111122 
DISL,ioos:station:DISL:MBLA:1,2016-03-07T05:30:00Z,30.4367,-88.0117,99.6,1111122 
DISL,ioos:station:DISL:MBLA:1,2016-03-07T06:00:00Z,30.4367,-88.0117,100.0,1111122 
DISL,ioos:station:DISL:MBLA:1,2016-03-07T06:30:00Z,30.4367,-88.0117,100.0,1111122 
DISL,ioos:station:DISL:MBLA:1,2016-03-07T07:00:00Z,30.4367,-88.0117,99.2,1111122 
DISL,ioos:station:DISL:MBLA:1,2016-03-07T07:30:00Z,30.4367,-88.0117,97.4,1111122 
DISL,ioos:station:DISL:MBLA:1,2016-03-07T08:00:00Z,30.4367,-88.0117,92.4,1111122 
DISL,ioos:station:DISL:MBLA:1,2016-03-07T08:30:00Z,30.4367,-88.0117,89.7,1111122 
DISL,ioos:station:DISL:MBLA:1,2016-03-07T09:00:00Z,30.4367,-88.0117,84.7,1111122 
DISL,ioos:station:DISL:MBLA:1,2016-03-07T09:30:00Z,30.4367,-88.0117,87.0,1111122 
DISL,ioos:station:DISL:MBLA:1,2016-03-07T10:00:00Z,30.4367,-88.0117,86.7,1111122 
DISL,ioos:station:DISL:MBLA:1,2016-03-07T10:30:00Z,30.4367,-88.0117,87.0,1111122 
DISL,ioos:station:DISL:MBLA:1,2016-03-07T11:00:00Z,30.4367,-88.0117,85.7,1111122 
DISL,ioos:station:DISL:MBLA:1,2016-03-07T11:30:00Z,30.4367,-88.0117,88.9,1111122 
DISL,ioos:station:DISL:MBLA:1,2016-03-07T12:00:00Z,30.4367,-88.0117,89.4,1111122 
DISL,ioos:station:DISL:MBLA:1,2016-03-07T12:30:00Z,30.4367,-88.0117,92.8,1111122 
DISL,ioos:station:DISL:MBLA:1,2016-03-07T13:00:00Z,30.4367,-88.0117,93.6,1111122 
DISL,ioos:station:DISL:MBLA:1,2016-03-07T13:30:00Z,30.4367,-88.0117,92.6,1111122 
DISL,ioos:station:DISL:MBLA:1,2016-03-07T14:00:00Z,30.4367,-88.0117,87.8,1111122 
DISL,ioos:station:DISL:MBLA:1,2016-03-07T14:30:00Z,30.4367,-88.0117,83.2,1111122 
DISL,ioos:station:DISL:MBLA:1,2016-03-07T15:00:00Z,30.4367,-88.0117,85.1,1111122 
DISL,ioos:station:DISL:MBLA:1,2016-03-07T15:30:00Z,30.4367,-88.0117,88.5,1111122 
DISL,ioos:station:DISL:MBLA:1,2016-03-07T16:00:00Z,30.4367,-88.0117,85.2,1111122 
DISL,ioos:station:DISL:MBLA:1,2016-03-07T16:30:00Z,30.4367,-88.0117,87.5,1111122 
DISL,ioos:station:DISL:MBLA:1,2016-03-07T17:00:00Z,30.4367,-88.0117,86.2,1111122 
DISL,ioos:station:DISL:MBLA:1,2016-03-07T17:30:00Z,30.4367,-88.0117,83.8,1111122 
DISL,ioos:station:DISL:MBLA:1,2016-03-07T18:00:00Z,30.4367,-88.0117,82.5,1111122 
DISL,ioos:station:DISL:MBLA:1,2016-03-07T18:30:00Z,30.4367,-88.0117,84.6,1111122 
DISL,ioos:station:DISL:MBLA:1,2016-03-07T19:00:00Z,30.4367,-88.0117,87.1,1111122 
DISL,ioos:station:DISL:MBLA:1,2016-03-07T19:30:00Z,30.4367,-88.0117,89.4,1111122 
DISL,ioos:station:DISL:MBLA:1,2016-03-07T20:00:00Z,30.4367,-88.0117,87.3,1111122 
DISL,ioos:station:DISL:MBLA:1,2016-03-07T20:30:00Z,30.4367,-88.0117,85.8,1111122 
DISL,ioos:station:DISL:MBLA:1,2016-03-07T21:00:00Z,30.4367,-88.0117,83.9,1111122 
DISL,ioos:station:DISL:MBLA:1,2016-03-07T21:30:00Z,30.4367,-88.0117,82.5,1111122 
DISL,ioos:station:DISL:MBLA:1,2016-03-07T22:00:00Z,30.4367,-88.0117,83.8,1111122 
DISL,ioos:station:DISL:MBLA:1,2016-03-07T22:30:00Z,30.4367,-88.0117,84.4,1111122 
DISL,ioos:station:DISL:MBLA:1,2016-03-07T23:00:00Z,30.4367,-88.0117,84.2,1111122 
DISL,ioos:station:DISL:MBLA:1,2016-03-07T23:30:00Z,30.4367,-88.0117,78.04,1111122 
DISL,ioos:station:DISL:MBLA:1,2016-03-08T00:00:00Z,30.4367,-88.0117,82.2,1111122 
DISL,ioos:station:DISL:MBLA:1,2016-03-08T00:30:00Z,30.4367,-88.0117,84.1,1111122 
DISL,ioos:station:DISL:MBLA:1,2016-03-08T01:00:00Z,30.4367,-88.0117,85.1,1111122 
DISL,ioos:station:DISL:MBLA:1,2016-03-08T01:30:00Z,30.4367,-88.0117,90.7,1111122 
DISL,ioos:station:DISL:MBLA:1,2016-03-08T02:00:00Z,30.4367,-88.0117,96.1,1111122 
DISL,ioos:station:DISL:MBLA:1,2016-03-08T02:30:00Z,30.4367,-88.0117,100.0,1111122 
DISL,ioos:station:DISL:MBLA:1,2016-03-08T03:00:00Z,30.4367,-88.0117,100.0,1111122 
DISL,ioos:station:DISL:MBLA:1,2016-03-08T03:30:00Z,30.4367,-88.0117,100.0,1111122 
DISL,ioos:station:DISL:MBLA:1,2016-03-08T04:00:00Z,30.4367,-88.0117,100.0,1111122 
DISL,ioos:station:DISL:MBLA:1,2016-03-08T04:30:00Z,30.4367,-88.0117,100.0,1111122 
DISL,ioos:station:DISL:MBLA:1,2016-03-08T05:00:00Z,30.4367,-88.0117,100.0,1111122 
DISL,ioos:station:DISL:MBLA:1,2016-03-08T05:30:00Z,30.4367,-88.0117,100.0,1111122 
DISL,ioos:station:DISL:MBLA:1,2016-03-08T06:00:00Z,30.4367,-88.0117,100.0,1111122 
DISL,ioos:station:DISL:MBLA:1,2016-03-08T06:30:00Z,30.4367,-88.0117,100.0,1111122 
DISL,ioos:station:DISL:MBLA:1,2016-03-08T07:00:00Z,30.4367,-88.0117,100.0,1111122 
DISL,ioos:station:DISL:MBLA:1,2016-03-08T08:00:00Z,30.4367,-88.0117,95.4,1111122 
DISL,ioos:station:DISL:MBLA:1,2016-03-08T08:30:00Z,30.4367,-88.0117,95.7,1111122 
DISL,ioos:station:DISL:MBLA:1,2016-03-08T09:00:00Z,30.4367,-88.0117,94.5,1111122 
DISL,ioos:station:DISL:MBLA:1,2016-03-08T09:30:00Z,30.4367,-88.0117,97.7,1111122 
DISL,ioos:station:DISL:MBLA:1,2016-03-08T10:00:00Z,30.4367,-88.0117,100.0,1111122 
DISL,ioos:station:DISL:MBLA:1,2016-03-08T10:30:00Z,30.4367,-88.0117,100.0,1111122 
DISL,ioos:station:DISL:MBLA:1,2016-03-08T11:00:00Z,30.4367,-88.0117,100.0,1111122 
DISL,ioos:station:DISL:MBLA:1,2016-03-08T11:30:00Z,30.4367,-88.0117,99.5,1111122 
DISL,ioos:station:DISL:MBLA:1,2016-03-08T12:00:00Z,30.4367,-88.0117,100.0,1111122 
DISL,ioos:station:DISL:MBLA:1,2016-03-08T12:30:00Z,30.4367,-88.0117,100.0,1111122 
DISL,ioos:station:DISL:MBLA:1,2016-03-08T14:00:00Z,30.4367,-88.0117,100.0,1111122 
DISL,ioos:station:DISL:MBLA:1,2016-03-08T14:30:00Z,30.4367,-88.0117,98.6,1111122 
DISL,ioos:station:DISL:MBLA:1,2016-03-08T15:00:00Z,30.4367,-88.0117,95.9,1111122 